Weather History for KNMM - April, 2013

Change the Weather History Date:

Thursday, April 25, 2013

  Actual Average Record
Temperature  
Mean Temperature 57 °F -  
Max Temperature 70 °F 74 °F 84 °F (2006)
Min Temperature 44 °F 54 °F 39 °F (2005)
Degree Days  
Heating Degree Days 8    
Growing Degree Days 7 (Base 50)    
Moisture  
Dew Point 41 °F    
Average Humidity 62    
Maximum Humidity 90    
Minimum Humidity 29    
Precipitation  
Precipitation 0.00 in - - ()
Sea Level Pressure  
Sea Level Pressure 30.34 in    
Wind  
Wind Speed 7 mph (NNE)    
Max Wind Speed 12 mph    
Max Gust Speed 21 mph    
Visibility 10 miles    
Events      
Averages and records for this station are not official NWS values.
T = Trace of Precipitation, MM = Missing Value Source: NWS Daily Summary

Daily Weather History Graph

Daily Weather History Graph

Search for Another Location

Airport or City:

Trip Planner

Search our weather history database for the weather conditions in past years. The results will help you decide how hot, cold, wet, or windy it might be!

Date:

Astronomy

Apr. 25, 2013 Rise Set
Actual Time 6:13 AM CDT 7:31 PM CDT
Civil Twilight 5:47 AM CDT 7:57 PM CDT
Nautical Twilight 5:16 AM CDT 8:28 PM CDT
Astronomical Twilight 4:44 AM CDT 9:00 PM CDT
Moon 7:42 PM CDT (4/25) 5:55 AM CDT (4/25)
Length of Visible Light 14h 09m
Length of Day
13h 18m
Full, 100% of the Moon is Illuminated
Apr 25
Full
Apr 25
Full
May 2
Last Quarter
May 9
New
May 17
First Quarter

Hourly Weather History & Observations

Time (CDT) Temp. Windchill Dew Point Humidity Pressure Visibility Wind Dir Wind Speed Gust Speed Precip Events Conditions
12:56 AM 51.1 °F - 45.0 °F 80% 30.28 in 10.0 mi North 6.9 mph - N/A   Overcast
1:07 AM 51.8 °F - 44.6 °F 76% 30.24 in 10.0 mi North 8.1 mph - N/A   Overcast
1:20 AM 50.0 °F - 44.6 °F 82% 30.25 in 10.0 mi North 8.1 mph - N/A   Overcast
1:56 AM 50.0 °F - 44.1 °F 80% 30.28 in 10.0 mi North 6.9 mph - N/A   Overcast
2:56 AM 48.9 °F - 42.1 °F 77% 30.29 in 10.0 mi North 9.2 mph - N/A   Overcast
3:56 AM 48.0 °F - 41.0 °F 77% 30.31 in 10.0 mi North 8.1 mph - N/A   Overcast
4:56 AM 46.0 °F 43.1 °F 39.9 °F 79% 30.31 in 10.0 mi North 5.8 mph - N/A   Scattered Clouds
5:56 AM 45.0 °F 43.5 °F 39.9 °F 82% 30.33 in 10.0 mi North 3.5 mph - N/A   Clear
6:56 AM 44.1 °F 40.8 °F 41.0 °F 89% 30.35 in 9.0 mi NNW 5.8 mph - N/A   Clear
7:56 AM 48.0 °F - 39.9 °F 74% 30.36 in 10.0 mi NNE 5.8 mph - N/A   Clear
8:56 AM 51.1 °F - 41.0 °F 68% 30.39 in 10.0 mi NE 11.5 mph - N/A   Scattered Clouds
9:56 AM 55.0 °F - 41.0 °F 59% 30.40 in 10.0 mi North 10.4 mph - N/A   Scattered Clouds
10:56 AM 57.9 °F - 37.9 °F 47% 30.41 in 10.0 mi Variable 6.9 mph 18.4 mph N/A   Scattered Clouds
11:56 AM 62.1 °F - 39.0 °F 43% 30.39 in 10.0 mi NNE 10.4 mph 16.1 mph N/A   Scattered Clouds
12:56 PM 64.0 °F - 37.9 °F 38% 30.38 in 10.0 mi NNE 8.1 mph 16.1 mph N/A   Partly Cloudy
1:56 PM 68.0 °F - 37.9 °F 33% 30.36 in 10.0 mi NE 10.4 mph - N/A   Partly Cloudy
2:56 PM 69.1 °F - 35.1 °F 29% 30.35 in 10.0 mi ENE 11.5 mph 20.7 mph N/A   Partly Cloudy
3:56 PM 69.1 °F - 36.0 °F 30% 30.34 in 10.0 mi ENE 10.4 mph - N/A   Clear
4:56 PM 70.0 °F - 36.0 °F 29% 30.33 in 10.0 mi NE 6.9 mph - N/A   Clear
5:56 PM 70.0 °F - 36.0 °F 29% 30.33 in 10.0 mi NE 6.9 mph - N/A   Clear
6:56 PM 66.9 °F - 37.9 °F 34% 30.33 in 10.0 mi NNE 3.5 mph - N/A   Clear
7:56 PM 59.0 °F - 43.0 °F 55% 30.33 in 10.0 mi Calm Calm - N/A   Clear
8:56 PM 55.0 °F - 45.0 °F 69% 30.35 in 10.0 mi NNW 3.5 mph - N/A   Clear
9:56 PM 51.1 °F - 46.0 °F 83% 30.36 in 10.0 mi Calm Calm - N/A   Clear
10:56 PM 48.0 °F - 44.1 °F 86% 30.35 in 10.0 mi Calm Calm - N/A   Clear
11:56 PM 46.9 °F - 44.1 °F 90% 30.35 in 10.0 mi Calm Calm - N/A   Clear